Time,TemperatureF,DewpointF,PressureIn,WindDirection,WindDirectionDegrees,WindSpeedMPH,WindSpeedGustMPH,Humidity,HourlyPrecipIn,Conditions,Clouds,dailyrainin,SolarRadiationWatts/m^2,SoftwareType,DateUTC
2013-06-20 00:03:00,72.2,62.3,29.85,SSE,155,10.0,11.0,71,0.00,,,0.00,0,Wunderground v.1.15,2013-06-20 05:03:00,
2013-06-20 00:08:00,72.2,62.3,29.86,SSE,160,7.0,11.0,71,0.00,,,0.00,0,Wunderground v.1.15,2013-06-20 05:08:00,
2013-06-20 00:13:00,72.1,62.2,29.86,SSE,164,8.0,11.0,71,0.00,,,0.00,0,Wunderground v.1.15,2013-06-20 05:13:00,
2013-06-20 00:18:00,72.1,62.2,29.86,SSE,162,7.0,13.0,71,0.00,,,0.00,0,Wunderground v.1.15,2013-06-20 05:18:00,
2013-06-20 00:23:00,72.0,62.1,29.86,SSE,167,10.0,12.0,71,0.00,,,0.00,0,Wunderground v.1.15,2013-06-20 05:23:00,
2013-06-20 00:29:00,72.0,62.1,29.85,SSE,147,9.0,12.0,71,0.00,,,0.00,0,Wunderground v.1.15,2013-06-20 05:29:00,
2013-06-20 00:34:00,72.1,62.2,29.86,SSE,155,11.0,11.0,71,0.00,,,0.00,0,Wunderground v.1.15,2013-06-20 05:34:00,
2013-06-20 00:39:00,72.1,62.2,29.86,SSE,168,8.0,11.0,71,0.00,,,0.00,0,Wunderground v.1.15,2013-06-20 05:39:00,
2013-06-20 00:44:00,72.0,62.5,29.85,SSE,148,8.0,10.0,72,0.00,,,0.00,0,Wunderground v.1.15,2013-06-20 05:44:00,
2013-06-20 00:49:00,71.9,62.4,29.85,SSE,157,11.0,11.0,72,0.00,,,0.00,0,Wunderground v.1.15,2013-06-20 05:49:00,
2013-06-20 00:54:00,71.8,62.3,29.85,SSE,160,9.0,10.0,72,0.00,,,0.00,0,Wunderground v.1.15,2013-06-20 05:54:00,
2013-06-20 00:59:00,71.7,62.6,29.86,SSE,155,10.0,10.0,73,0.00,,,0.00,0,Wunderground v.1.15,2013-06-20 05:59:00,
2013-06-20 01:05:00,71.6,62.5,29.85,SSE,155,10.0,11.0,73,0.00,,,0.00,0,Wunderground v.1.15,2013-06-20 06:05:00,
2013-06-20 01:11:00,71.5,62.4,29.85,SSE,164,9.0,9.0,73,0.00,,,0.00,0,Wunderground v.1.15,2013-06-20 06:11:00,
2013-06-20 01:16:00,71.5,62.8,29.85,South,175,8.0,11.0,74,0.00,,,0.00,0,Wunderground v.1.15,2013-06-20 06:16:00,
2013-06-20 01:21:00,71.5,62.8,29.85,SSE,155,12.0,12.0,74,0.00,,,0.00,0,Wunderground v.1.15,2013-06-20 06:21:00,
2013-06-20 01:26:00,71.4,62.7,29.85,SSE,165,8.0,12.0,74,0.00,,,0.00,0,Wunderground v.1.15,2013-06-20 06:26:00,
2013-06-20 01:31:00,71.3,63.0,29.85,SSE,165,8.0,9.0,75,0.00,,,0.00,0,Wunderground v.1.15,2013-06-20 06:31:00,
2013-06-20 01:36:00,71.2,62.9,29.85,SSE,161,9.0,9.0,75,0.00,,,0.00,0,Wunderground v.1.15,2013-06-20 06:36:00,
2013-06-20 01:41:00,71.1,62.8,29.84,SSE,158,8.0,9.0,75,0.00,,,0.00,0,Wunderground v.1.15,2013-06-20 06:41:00,
2013-06-20 01:46:00,71.0,63.1,29.84,SE,145,8.0,11.0,76,0.00,,,0.00,0,Wunderground v.1.15,2013-06-20 06:46:00,
2013-06-20 01:51:00,71.0,63.1,29.84,SE,146,8.0,9.0,76,0.00,,,0.00,0,Wunderground v.1.15,2013-06-20 06:51:00,
2013-06-20 01:56:00,70.8,62.9,29.84,SE,146,9.0,11.0,76,0.00,,,0.00,0,Wunderground v.1.15,2013-06-20 06:56:00,
2013-06-20 02:01:00,70.7,63.1,29.84,SE,144,7.0,8.0,77,0.00,,,0.00,0,Wunderground v.1.15,2013-06-20 07:01:00,
2013-06-20 02:06:00,70.4,62.8,29.84,SE,144,8.0,11.0,77,0.00,,,0.00,0,Wunderground v.1.15,2013-06-20 07:06:00,
2013-06-20 02:11:00,70.3,63.1,29.84,SSE,148,7.0,9.0,78,0.00,,,0.00,0,Wunderground v.1.15,2013-06-20 07:11:00,
2013-06-20 02:16:00,70.1,62.9,29.84,SE,141,8.0,10.0,78,0.00,,,0.00,0,Wunderground v.1.15,2013-06-20 07:16:00,
2013-06-20 02:21:00,69.8,63.0,29.84,SE,144,8.0,10.0,79,0.00,,,0.00,0,Wunderground v.1.15,2013-06-20 07:21:00,
2013-06-20 02:26:00,69.6,62.8,29.84,SSE,149,8.0,12.0,79,0.00,,,0.00,0,Wunderground v.1.15,2013-06-20 07:26:00,
2013-06-20 02:31:00,69.4,62.6,29.84,SSE,152,7.0,10.0,79,0.00,,,0.00,0,Wunderground v.1.15,2013-06-20 07:31:00,
2013-06-20 02:36:00,69.3,62.9,29.84,SSE,157,7.0,11.0,80,0.00,,,0.00,0,Wunderground v.1.15,2013-06-20 07:36:00,
2013-06-20 02:41:00,69.3,63.2,29.84,South,169,10.0,11.0,81,0.00,,,0.00,0,Wunderground v.1.15,2013-06-20 07:41:00,
2013-06-20 02:46:00,69.3,63.2,29.84,SSE,161,9.0,13.0,81,0.00,,,0.00,0,Wunderground v.1.15,2013-06-20 07:46:00,
2013-06-20 02:51:00,69.4,63.3,29.84,SSE,159,8.0,13.0,81,0.00,,,0.00,0,Wunderground v.1.15,2013-06-20 07:51:00,
2013-06-20 02:56:00,69.5,63.4,29.84,SSE,156,8.0,13.0,81,0.00,,,0.00,0,Wunderground v.1.15,2013-06-20 07:56:00,
2013-06-20 03:01:00,69.6,63.2,29.84,SSE,168,8.0,11.0,80,0.00,,,0.00,0,Wunderground v.1.15,2013-06-20 08:01:00,
2013-06-20 03:06:00,69.7,63.3,29.83,SSE,155,8.0,13.0,80,0.00,,,0.00,0,Wunderground v.1.15,2013-06-20 08:06:00,
2013-06-20 03:11:00,69.7,63.3,29.83,SSE,168,12.0,12.0,80,0.00,,,0.00,0,Wunderground v.1.15,2013-06-20 08:11:00,
2013-06-20 03:16:00,69.8,63.3,29.83,SSE,161,10.0,15.0,80,0.00,,,0.00,0,Wunderground v.1.15,2013-06-20 08:16:00,
2013-06-20 03:21:00,69.7,63.3,29.83,SSE,155,12.0,14.0,80,0.00,,,0.00,0,Wunderground v.1.15,2013-06-20 08:21:00,
2013-06-20 03:26:00,69.6,63.5,29.83,SSE,153,9.0,14.0,81,0.00,,,0.00,0,Wunderground v.1.15,2013-06-20 08:26:00,
2013-06-20 03:31:00,69.5,63.4,29.82,SSE,154,9.0,13.0,81,0.00,,,0.00,0,Wunderground v.1.15,2013-06-20 08:31:00,
2013-06-20 03:36:00,69.5,63.4,29.83,SSE,148,10.0,13.0,81,0.00,,,0.00,0,Wunderground v.1.15,2013-06-20 08:36:00,
2013-06-20 03:41:00,69.4,63.3,29.83,SSE,159,8.0,12.0,81,0.00,,,0.00,0,Wunderground v.1.15,2013-06-20 08:41:00,
2013-06-20 03:46:00,69.4,63.7,29.83,SSE,164,6.0,12.0,82,0.00,,,0.00,0,Wunderground v.1.15,2013-06-20 08:46:00,
2013-06-20 03:51:00,69.4,63.7,29.82,SSE,160,10.0,11.0,82,0.00,,,0.00,0,Wunderground v.1.15,2013-06-20 08:51:00,
2013-06-20 03:56:00,69.3,63.6,29.82,SSE,161,9.0,11.0,82,0.00,,,0.00,0,Wunderground v.1.15,2013-06-20 08:56:00,
2013-06-20 04:01:00,69.3,63.6,29.82,SE,139,9.0,12.0,82,0.00,,,0.00,0,Wunderground v.1.15,2013-06-20 09:01:00,
2013-06-20 04:06:00,69.2,63.5,29.82,SSE,159,10.0,13.0,82,0.00,,,0.00,0,Wunderground v.1.15,2013-06-20 09:06:00,
2013-06-20 04:11:00,69.2,63.8,29.82,SSE,157,11.0,11.0,83,0.00,,,0.00,0,Wunderground v.1.15,2013-06-20 09:11:00,
2013-06-20 04:17:00,69.2,63.8,29.81,SSE,149,10.0,12.0,83,0.00,,,0.00,0,Wunderground v.1.15,2013-06-20 09:17:00,
2013-06-20 04:22:00,69.1,63.7,29.81,SSE,159,8.0,12.0,83,0.00,,,0.00,0,Wunderground v.1.15,2013-06-20 09:22:00,
2013-06-20 04:27:00,69.0,63.6,29.81,SSE,157,7.0,14.0,83,0.00,,,0.00,0,Wunderground v.1.15,2013-06-20 09:27:00,
2013-06-20 04:32:00,69.0,64.0,29.81,SSE,161,8.0,14.0,84,0.00,,,0.00,0,Wunderground v.1.15,2013-06-20 09:32:00,
2013-06-20 04:37:00,68.9,63.9,29.81,SSE,150,11.0,14.0,84,0.00,,,0.00,0,Wunderground v.1.15,2013-06-20 09:37:00,
2013-06-20 04:42:00,68.8,63.8,29.81,SSE,150,11.0,12.0,84,0.00,,,0.00,0,Wunderground v.1.15,2013-06-20 09:42:00,
2013-06-20 04:47:00,68.8,63.8,29.81,SSE,153,9.0,13.0,84,0.00,,,0.00,0,Wunderground v.1.15,2013-06-20 09:47:00,
2013-06-20 04:52:00,68.7,63.7,29.81,SSE,148,10.0,13.0,84,0.00,,,0.00,0,Wunderground v.1.15,2013-06-20 09:52:00,
2013-06-20 04:57:00,68.6,63.6,29.81,SSE,153,12.0,14.0,84,0.00,,,0.00,0,Wunderground v.1.15,2013-06-20 09:57:00,
2013-06-20 05:02:00,68.6,63.6,29.81,SSE,162,8.0,13.0,84,0.00,,,0.00,0,Wunderground v.1.15,2013-06-20 10:02:00,
2013-06-20 05:07:00,68.5,63.8,29.82,SSE,155,7.0,13.0,85,0.00,,,0.00,0,Wunderground v.1.15,2013-06-20 10:07:00,
2013-06-20 05:12:00,68.4,63.7,29.82,SSE,157,8.0,11.0,85,0.00,,,0.00,0,Wunderground v.1.15,2013-06-20 10:12:00,
2013-06-20 05:17:00,68.4,63.7,29.82,SSE,150,7.0,11.0,85,0.00,,,0.00,0,Wunderground v.1.15,2013-06-20 10:17:00,
2013-06-20 05:22:00,68.3,63.9,29.81,SSE,163,10.0,11.0,86,0.00,,,0.00,0,Wunderground v.1.15,2013-06-20 10:22:00,
2013-06-20 05:27:00,68.2,63.9,29.82,SSE,153,10.0,11.0,86,0.00,,,0.00,0,Wunderground v.1.15,2013-06-20 10:27:00,
2013-06-20 05:32:00,68.2,63.9,29.82,SE,141,8.0,15.0,86,0.00,,,0.00,0,Wunderground v.1.15,2013-06-20 10:32:00,
2013-06-20 05:37:00,68.3,64.3,29.82,SE,144,10.0,15.0,87,0.00,,,0.00,0,Wunderground v.1.15,2013-06-20 10:37:00,
2013-06-20 05:43:00,68.5,64.1,29.82,SSE,150,10.0,13.0,86,0.00,,,0.00,0,Wunderground v.1.15,2013-06-20 10:43:00,
2013-06-20 05:48:00,68.6,64.2,29.81,SSE,148,11.0,15.0,86,0.00,,,0.00,0,Wunderground v.1.15,2013-06-20 10:48:00,
2013-06-20 05:53:00,68.6,64.2,29.81,SSE,150,10.0,14.0,86,0.00,,,0.00,0,Wunderground v.1.15,2013-06-20 10:53:00,
2013-06-20 05:58:00,68.7,64.3,29.81,SSE,165,8.0,14.0,86,0.00,,,0.00,0,Wunderground v.1.15,2013-06-20 10:58:00,
2013-06-20 06:03:00,68.7,64.3,29.81,SSE,163,10.0,13.0,86,0.00,,,0.00,5,Wunderground v.1.15,2013-06-20 11:03:00,
2013-06-20 06:08:00,68.7,64.7,29.81,SSE,148,12.0,13.0,87,0.00,,,0.00,9,Wunderground v.1.15,2013-06-20 11:08:00,
2013-06-20 06:13:00,68.8,64.8,29.81,SE,144,12.0,15.0,87,0.00,,,0.00,11,Wunderground v.1.15,2013-06-20 11:13:00,
2013-06-20 06:18:00,68.9,64.9,29.81,SSE,155,12.0,15.0,87,0.00,,,0.00,11,Wunderground v.1.15,2013-06-20 11:18:00,
2013-06-20 06:23:00,69.0,65.0,29.81,SE,144,10.0,14.0,87,0.00,,,0.00,7,Wunderground v.1.15,2013-06-20 11:23:00,
2013-06-20 06:27:00,69.2,65.2,29.81,SSE,153,13.0,14.0,87,0.00,,,0.00,11,Wunderground v.1.15,2013-06-20 11:27:00,
2013-06-20 06:32:00,69.3,65.3,29.81,SSE,153,12.0,15.0,87,0.00,,,0.00,12,Wunderground v.1.15,2013-06-20 11:32:00,
2013-06-20 06:38:00,69.4,65.0,29.81,SE,145,17.0,17.0,86,0.00,,,0.00,23,Wunderground v.1.15,2013-06-20 11:38:00,
2013-06-20 06:43:00,69.5,65.1,29.81,SE,143,11.0,14.0,86,0.00,,,0.00,35,Wunderground v.1.15,2013-06-20 11:43:00,
2013-06-20 06:48:00,69.6,65.6,29.81,SE,142,15.0,15.0,87,0.00,,,0.00,46,Wunderground v.1.15,2013-06-20 11:48:00,
2013-06-20 06:53:00,69.7,65.7,29.81,SE,139,11.0,18.0,87,0.00,,,0.00,83,Wunderground v.1.15,2013-06-20 11:53:00,
2013-06-20 06:58:00,70.0,66.0,29.81,SSE,153,14.0,18.0,87,0.00,,,0.00,104,Wunderground v.1.15,2013-06-20 11:58:00,
2013-06-20 07:03:00,70.3,65.9,29.80,SE,145,9.0,14.0,86,0.00,,,0.00,137,Wunderground v.1.15,2013-06-20 12:03:00,
2013-06-20 07:08:00,70.7,66.3,29.81,SSE,155,11.0,18.0,86,0.00,,,0.00,142,Wunderground v.1.15,2013-06-20 12:08:00,
2013-06-20 07:13:00,71.1,66.7,29.80,SSE,154,16.0,20.0,86,0.00,,,0.00,135,Wunderground v.1.15,2013-06-20 12:13:00,
2013-06-20 07:18:00,71.5,66.4,29.80,SE,146,11.0,22.0,84,0.00,,,0.00,88,Wunderground v.1.15,2013-06-20 12:18:00,
2013-06-20 07:23:00,71.7,66.6,29.80,SSE,153,14.0,20.0,84,0.00,,,0.00,74,Wunderground v.1.15,2013-06-20 12:23:00,
2013-06-20 07:28:00,71.9,66.8,29.80,SSE,147,17.0,20.0,84,0.00,,,0.00,79,Wunderground v.1.15,2013-06-20 12:28:00,
2013-06-20 07:33:00,72.0,66.6,29.80,SSE,150,16.0,23.0,83,0.00,,,0.00,132,Wunderground v.1.15,2013-06-20 12:33:00,
2013-06-20 07:38:00,72.3,66.8,29.80,South,177,15.0,25.0,83,0.00,,,0.00,90,Wunderground v.1.15,2013-06-20 12:38:00,
2013-06-20 07:43:00,72.5,67.0,29.80,SSE,160,15.0,19.0,83,0.00,,,0.00,118,Wunderground v.1.15,2013-06-20 12:43:00,
2013-06-20 07:48:00,72.8,67.0,29.80,SE,146,19.0,21.0,82,0.00,,,0.00,98,Wunderground v.1.15,2013-06-20 12:48:00,
2013-06-20 07:53:00,73.1,67.3,29.80,SSE,161,12.0,22.0,82,0.00,,,0.00,234,Wunderground v.1.15,2013-06-20 12:53:00,
2013-06-20 07:58:00,73.5,67.3,29.80,SE,142,14.0,23.0,81,0.00,,,0.00,257,Wunderground v.1.15,2013-06-20 12:58:00,
2013-06-20 08:04:00,74.0,67.8,29.80,South,171,19.0,20.0,81,0.00,,,0.00,279,Wunderground v.1.15,2013-06-20 13:04:00,
2013-06-20 08:09:00,74.4,67.8,29.79,South,169,15.0,26.0,80,0.00,,,0.00,299,Wunderground v.1.15,2013-06-20 13:09:00,
2013-06-20 08:14:00,74.8,68.2,29.79,SSE,157,24.0,26.0,80,0.00,,,0.00,313,Wunderground v.1.15,2013-06-20 13:14:00,
2013-06-20 08:19:00,75.1,68.1,29.79,SSE,148,19.0,26.0,79,0.00,,,0.00,134,Wunderground v.1.15,2013-06-20 13:19:00,
2013-06-20 08:24:00,75.1,67.8,29.79,SE,144,22.0,26.0,78,0.00,,,0.00,267,Wunderground v.1.15,2013-06-20 13:24:00,
2013-06-20 08:29:00,75.2,67.9,29.78,SSE,157,21.0,26.0,78,0.00,,,0.00,118,Wunderground v.1.15,2013-06-20 13:29:00,
2013-06-20 08:34:00,75.3,68.3,29.78,SSE,150,14.0,24.0,79,0.00,,,0.00,352,Wunderground v.1.15,2013-06-20 13:34:00,
2013-06-20 08:39:00,75.7,68.4,29.79,SSE,161,22.0,24.0,78,0.00,,,0.00,367,Wunderground v.1.15,2013-06-20 13:39:00,
2013-06-20 08:44:00,76.1,68.7,29.78,SSE,156,15.0,23.0,78,0.00,,,0.00,388,Wunderground v.1.15,2013-06-20 13:44:00,
2013-06-20 08:49:00,76.5,68.7,29.78,South,180,23.0,25.0,77,0.00,,,0.00,396,Wunderground v.1.15,2013-06-20 13:49:00,
2013-06-20 08:54:00,76.8,68.7,29.78,SSE,155,19.0,25.0,76,0.00,,,0.00,411,Wunderground v.1.15,2013-06-20 13:54:00,
2013-06-20 08:59:00,77.0,68.9,29.78,South,171,20.0,25.0,76,0.00,,,0.00,429,Wunderground v.1.15,2013-06-20 13:59:00,
2013-06-20 09:04:00,77.3,68.8,29.78,South,172,14.0,30.0,75,0.00,,,0.00,448,Wunderground v.1.15,2013-06-20 14:04:00,
2013-06-20 09:09:00,77.6,69.0,29.78,SSE,167,19.0,30.0,75,0.00,,,0.00,459,Wunderground v.1.15,2013-06-20 14:09:00,
2013-06-20 09:14:00,77.7,68.7,29.78,South,171,21.0,28.0,74,0.00,,,0.00,469,Wunderground v.1.15,2013-06-20 14:14:00,
2013-06-20 09:19:00,77.9,68.9,29.78,SSE,159,26.0,28.0,74,0.00,,,0.00,489,Wunderground v.1.15,2013-06-20 14:19:00,
2013-06-20 09:24:00,78.2,69.2,29.78,SSE,168,13.0,26.0,74,0.00,,,0.00,501,Wunderground v.1.15,2013-06-20 14:24:00,
2013-06-20 09:29:00,78.6,69.2,29.78,South,188,13.0,26.0,73,0.00,,,0.00,517,Wunderground v.1.15,2013-06-20 14:29:00,
2013-06-20 09:34:00,79.0,69.2,29.78,SSE,165,18.0,25.0,72,0.00,,,0.00,529,Wunderground v.1.15,2013-06-20 14:34:00,
2013-06-20 09:39:00,79.3,69.5,29.77,South,171,21.0,25.0,72,0.00,,,0.00,552,Wunderground v.1.15,2013-06-20 14:39:00,
2013-06-20 09:44:00,79.6,69.4,29.77,SSE,155,20.0,28.0,71,0.00,,,0.00,561,Wunderground v.1.15,2013-06-20 14:44:00,
2013-06-20 09:49:00,79.6,69.0,29.77,SSE,165,25.0,31.0,70,0.00,,,0.00,578,Wunderground v.1.15,2013-06-20 14:49:00,
2013-06-20 09:54:00,79.7,69.5,29.77,South,171,15.0,27.0,71,0.00,,,0.00,591,Wunderground v.1.15,2013-06-20 14:54:00,
2013-06-20 10:00:00,80.0,69.3,29.77,South,172,23.0,23.0,70,0.00,,,0.00,603,Wunderground v.1.15,2013-06-20 15:00:00,
2013-06-20 10:05:00,80.3,69.6,29.77,South,179,23.0,28.0,70,0.00,,,0.00,622,Wunderground v.1.15,2013-06-20 15:05:00,
2013-06-20 10:10:00,80.6,69.5,29.76,South,186,16.0,20.0,69,0.00,,,0.00,635,Wunderground v.1.15,2013-06-20 15:10:00,
2013-06-20 10:15:00,80.9,69.8,29.76,South,178,19.0,28.0,69,0.00,,,0.00,647,Wunderground v.1.15,2013-06-20 15:15:00,
2013-06-20 10:20:00,81.1,70.0,29.76,South,171,19.0,24.0,69,0.00,,,0.00,661,Wunderground v.1.15,2013-06-20 15:20:00,
2013-06-20 10:25:00,81.4,70.2,29.76,South,173,16.0,25.0,69,0.00,,,0.00,701,Wunderground v.1.15,2013-06-20 15:25:00,
2013-06-20 10:30:00,81.6,70.0,29.76,South,172,24.0,25.0,68,0.00,,,0.00,687,Wunderground v.1.15,2013-06-20 15:30:00,
2013-06-20 10:36:00,81.8,70.2,29.76,SSE,155,17.0,26.0,68,0.00,,,0.00,703,Wunderground v.1.15,2013-06-20 15:36:00,
2013-06-20 10:41:00,82.3,70.7,29.76,SSW,200,30.0,31.0,68,0.00,,,0.00,721,Wunderground v.1.15,2013-06-20 15:41:00,
2013-06-20 10:46:00,82.9,70.4,29.76,South,171,16.0,31.0,66,0.00,,,0.00,749,Wunderground v.1.15,2013-06-20 15:46:00,
2013-06-20 10:51:00,83.4,69.9,29.77,SSW,196,20.0,28.0,64,0.00,,,0.00,733,Wunderground v.1.15,2013-06-20 15:51:00,
2013-06-20 10:56:00,83.9,70.0,29.76,SSE,161,15.0,33.0,63,0.00,,,0.00,742,Wunderground v.1.15,2013-06-20 15:56:00,
2013-06-20 11:01:00,83.9,69.5,29.76,SSE,158,22.0,29.0,62,0.00,,,0.00,763,Wunderground v.1.15,2013-06-20 16:01:00,
2013-06-20 11:06:00,84.1,70.6,29.77,South,173,21.0,30.0,64,0.00,,,0.00,775,Wunderground v.1.15,2013-06-20 16:06:00,
2013-06-20 11:11:00,84.4,70.4,29.77,SSE,159,17.0,27.0,63,0.00,,,0.00,789,Wunderground v.1.15,2013-06-20 16:11:00,
2013-06-20 11:16:00,84.9,69.9,29.77,South,175,16.0,27.0,61,0.00,,,0.00,789,Wunderground v.1.15,2013-06-20 16:16:00,
2013-06-20 11:21:00,85.2,70.7,29.76,South,172,16.0,24.0,62,0.00,,,0.00,798,Wunderground v.1.15,2013-06-20 16:21:00,
2013-06-20 11:26:00,85.5,70.5,29.76,South,171,20.0,27.0,61,0.00,,,0.00,817,Wunderground v.1.15,2013-06-20 16:26:00,
2013-06-20 11:31:00,85.5,71.0,29.77,SSW,208,19.0,26.0,62,0.00,,,0.00,840,Wunderground v.1.15,2013-06-20 16:31:00,
2013-06-20 11:36:00,85.7,70.2,29.76,South,170,21.0,28.0,60,0.00,,,0.00,809,Wunderground v.1.15,2013-06-20 16:36:00,
2013-06-20 11:41:00,85.7,70.2,29.76,SSE,165,19.0,26.0,60,0.00,,,0.00,837,Wunderground v.1.15,2013-06-20 16:41:00,
2013-06-20 11:46:00,85.9,70.4,29.76,South,178,23.0,26.0,60,0.00,,,0.00,842,Wunderground v.1.15,2013-06-20 16:46:00,
2013-06-20 11:51:00,86.1,70.6,29.76,South,175,20.0,25.0,60,0.00,,,0.00,861,Wunderground v.1.15,2013-06-20 16:51:00,
2013-06-20 11:56:00,86.0,70.5,29.76,SSE,168,20.0,26.0,60,0.00,,,0.00,856,Wunderground v.1.15,2013-06-20 16:56:00,
2013-06-20 12:01:00,86.1,70.6,29.76,SSE,167,12.0,22.0,60,0.00,,,0.00,884,Wunderground v.1.15,2013-06-20 17:01:00,
2013-06-20 12:06:00,86.5,70.5,29.76,South,178,24.0,29.0,59,0.00,,,0.00,881,Wunderground v.1.15,2013-06-20 17:06:00,
2013-06-20 12:11:00,86.6,70.6,29.76,South,180,17.0,24.0,59,0.00,,,0.00,912,Wunderground v.1.15,2013-06-20 17:11:00,
2013-06-20 12:16:00,86.9,71.3,29.76,SSE,163,18.0,24.0,60,0.00,,,0.00,926,Wunderground v.1.15,2013-06-20 17:16:00,
2013-06-20 12:21:00,86.6,71.1,29.76,SSE,159,21.0,23.0,60,0.00,,,0.00,965,Wunderground v.1.15,2013-06-20 17:21:00,
2013-06-20 12:26:00,86.5,71.0,29.76,South,178,18.0,23.0,60,0.00,,,0.00,970,Wunderground v.1.15,2013-06-20 17:26:00,
2013-06-20 12:31:00,86.8,71.2,29.76,South,180,15.0,24.0,60,0.00,,,0.00,949,Wunderground v.1.15,2013-06-20 17:31:00,
2013-06-20 12:36:00,87.3,72.2,29.76,South,173,17.0,25.0,61,0.00,,,0.00,930,Wunderground v.1.15,2013-06-20 17:36:00,
2013-06-20 12:41:00,87.6,71.5,29.76,SSE,151,17.0,24.0,59,0.00,,,0.00,916,Wunderground v.1.15,2013-06-20 17:41:00,
2013-06-20 12:46:00,87.8,71.2,29.76,South,173,17.0,24.0,58,0.00,,,0.00,976,Wunderground v.1.15,2013-06-20 17:46:00,
2013-06-20 12:51:00,87.9,71.3,29.76,SSE,151,18.0,27.0,58,0.00,,,0.00,357,Wunderground v.1.15,2013-06-20 17:51:00,
2013-06-20 12:56:00,87.6,71.5,29.76,South,178,20.0,27.0,59,0.00,,,0.00,984,Wunderground v.1.15,2013-06-20 17:56:00,
2013-06-20 13:01:00,87.5,71.9,29.76,SSE,162,16.0,19.0,60,0.00,,,0.00,1062,Wunderground v.1.15,2013-06-20 18:01:00,
2013-06-20 13:06:00,87.6,72.0,29.76,South,182,14.0,27.0,60,0.00,,,0.00,1044,Wunderground v.1.15,2013-06-20 18:06:00,
2013-06-20 13:11:00,87.7,72.6,29.75,SSE,162,21.0,25.0,61,0.00,,,0.00,1083,Wunderground v.1.15,2013-06-20 18:11:00,
2013-06-20 13:16:00,87.8,72.2,29.75,SSE,157,17.0,25.0,60,0.00,,,0.00,446,Wunderground v.1.15,2013-06-20 18:16:00,
2013-06-20 13:21:00,88.4,71.2,29.75,South,174,21.0,25.0,57,0.00,,,0.00,954,Wunderground v.1.15,2013-06-20 18:21:00,
2013-06-20 13:26:00,88.8,71.6,29.74,South,188,21.0,26.0,57,0.00,,,0.00,928,Wunderground v.1.15,2013-06-20 18:26:00,
2013-06-20 13:31:00,89.1,71.4,29.74,SSE,165,17.0,30.0,56,0.00,,,0.00,914,Wunderground v.1.15,2013-06-20 18:31:00,
2013-06-20 13:36:00,89.2,72.0,29.74,SSE,166,24.0,30.0,57,0.00,,,0.00,905,Wunderground v.1.15,2013-06-20 18:36:00,
2013-06-20 13:42:00,89.2,72.0,29.74,SSE,167,19.0,23.0,57,0.00,,,0.00,893,Wunderground v.1.15,2013-06-20 18:42:00,
2013-06-20 13:47:00,89.4,72.2,29.73,South,188,20.0,24.0,57,0.00,,,0.00,933,Wunderground v.1.15,2013-06-20 18:47:00,
2013-06-20 13:52:00,89.6,72.3,29.73,SSE,163,14.0,28.0,57,0.00,,,0.00,886,Wunderground v.1.15,2013-06-20 18:52:00,
2013-06-20 13:57:00,89.8,71.5,29.73,SSE,164,17.0,28.0,55,0.00,,,0.00,889,Wunderground v.1.15,2013-06-20 18:57:00,
2013-06-20 14:02:00,90.1,73.3,29.73,South,169,17.0,22.0,58,0.00,,,0.00,916,Wunderground v.1.15,2013-06-20 19:02:00,
2013-06-20 14:07:00,90.1,72.3,29.73,SSE,161,20.0,25.0,56,0.00,,,0.00,930,Wunderground v.1.15,2013-06-20 19:07:00,
2013-06-20 14:12:00,90.1,72.3,29.72,SSE,161,18.0,25.0,56,0.00,,,0.00,877,Wunderground v.1.15,2013-06-20 19:12:00,
2013-06-20 14:17:00,90.2,72.4,29.72,South,175,20.0,25.0,56,0.00,,,0.00,926,Wunderground v.1.15,2013-06-20 19:17:00,
2013-06-20 14:22:00,90.2,72.4,29.73,SSE,160,20.0,25.0,56,0.00,,,0.00,896,Wunderground v.1.15,2013-06-20 19:22:00,
2013-06-20 14:27:00,90.2,71.8,29.72,South,171,19.0,28.0,55,0.00,,,0.00,949,Wunderground v.1.15,2013-06-20 19:27:00,
2013-06-20 14:32:00,90.0,72.2,29.71,South,184,16.0,23.0,56,0.00,,,0.00,893,Wunderground v.1.15,2013-06-20 19:32:00,
2013-06-20 14:37:00,90.0,72.7,29.71,SSE,159,15.0,25.0,57,0.00,,,0.00,860,Wunderground v.1.15,2013-06-20 19:37:00,
2013-06-20 14:42:00,90.1,72.3,29.71,SSE,148,19.0,26.0,56,0.00,,,0.00,853,Wunderground v.1.15,2013-06-20 19:42:00,
2013-06-20 14:47:00,90.3,71.9,29.71,SSE,163,26.0,28.0,55,0.00,,,0.00,851,Wunderground v.1.15,2013-06-20 19:47:00,
2013-06-20 14:52:00,90.4,72.6,29.70,SSE,160,16.0,22.0,56,0.00,,,0.00,868,Wunderground v.1.15,2013-06-20 19:52:00,
2013-06-20 14:58:00,90.5,72.7,29.71,South,183,25.0,25.0,56,0.00,,,0.00,932,Wunderground v.1.15,2013-06-20 19:58:00,
2013-06-20 15:03:00,90.8,72.4,29.71,SE,139,22.0,28.0,55,0.00,,,0.00,902,Wunderground v.1.15,2013-06-20 20:03:00,
2013-06-20 15:08:00,90.9,73.0,29.71,SSE,161,16.0,28.0,56,0.00,,,0.00,907,Wunderground v.1.15,2013-06-20 20:08:00,
2013-06-20 15:13:00,90.7,72.3,29.71,SSE,157,12.0,30.0,55,0.00,,,0.00,884,Wunderground v.1.15,2013-06-20 20:13:00,
2013-06-20 15:18:00,90.6,72.2,29.70,South,173,23.0,30.0,55,0.00,,,0.00,292,Wunderground v.1.15,2013-06-20 20:18:00,
2013-06-20 15:23:00,90.4,72.6,29.70,SSE,152,19.0,27.0,56,0.00,,,0.00,292,Wunderground v.1.15,2013-06-20 20:23:00,
2013-06-20 15:28:00,90.5,72.7,29.70,SSE,155,20.0,27.0,56,0.00,,,0.00,334,Wunderground v.1.15,2013-06-20 20:28:00,
2013-06-20 15:33:00,90.4,72.0,29.70,South,170,19.0,25.0,55,0.00,,,0.00,299,Wunderground v.1.15,2013-06-20 20:33:00,
2013-06-20 15:39:00,90.5,72.1,29.70,South,179,23.0,26.0,55,0.00,,,0.00,308,Wunderground v.1.15,2013-06-20 20:39:00,
2013-06-20 15:44:00,90.6,72.8,29.70,SSE,150,15.0,26.0,56,0.00,,,0.00,323,Wunderground v.1.15,2013-06-20 20:44:00,
2013-06-20 15:49:00,90.4,73.1,29.70,SSE,167,21.0,26.0,57,0.00,,,0.00,805,Wunderground v.1.15,2013-06-20 20:49:00,
2013-06-20 15:54:00,90.6,72.2,29.70,SSE,163,25.0,26.0,55,0.00,,,0.00,322,Wunderground v.1.15,2013-06-20 20:54:00,
2013-06-20 15:59:00,90.8,73.5,29.70,South,172,19.0,27.0,57,0.00,,,0.00,842,Wunderground v.1.15,2013-06-20 20:59:00,
2013-06-20 16:04:00,90.9,73.6,29.70,SSE,158,15.0,27.0,57,0.00,,,0.00,872,Wunderground v.1.15,2013-06-20 21:04:00,
2013-06-20 16:09:00,90.8,72.9,29.70,SSE,160,16.0,27.0,56,0.00,,,0.00,315,Wunderground v.1.15,2013-06-20 21:09:00,
2013-06-20 16:14:00,90.2,72.9,29.70,SSE,147,20.0,26.0,57,0.00,,,0.00,320,Wunderground v.1.15,2013-06-20 21:14:00,
2013-06-20 16:19:00,89.9,72.6,29.70,SSE,165,18.0,28.0,57,0.00,,,0.00,336,Wunderground v.1.15,2013-06-20 21:19:00,
2013-06-20 16:24:00,90.1,73.8,29.70,South,169,24.0,24.0,59,0.00,,,0.00,819,Wunderground v.1.15,2013-06-20 21:24:00,
2013-06-20 16:29:00,90.2,72.9,29.70,SSE,160,21.0,26.0,57,0.00,,,0.00,341,Wunderground v.1.15,2013-06-20 21:29:00,
2013-06-20 16:34:00,90.3,73.0,29.70,SSE,154,15.0,24.0,57,0.00,,,0.00,740,Wunderground v.1.15,2013-06-20 21:34:00,
2013-06-20 16:39:00,90.4,73.1,29.70,SSE,163,13.0,27.0,57,0.00,,,0.00,251,Wunderground v.1.15,2013-06-20 21:39:00,
2013-06-20 16:44:00,90.6,73.3,29.69,South,178,24.0,25.0,57,0.00,,,0.00,693,Wunderground v.1.15,2013-06-20 21:44:00,
2013-06-20 16:49:00,91.2,73.3,29.69,South,180,15.0,25.0,56,0.00,,,0.00,717,Wunderground v.1.15,2013-06-20 21:49:00,
2013-06-20 16:54:00,91.2,73.3,29.69,SSE,167,21.0,27.0,56,0.00,,,0.00,297,Wunderground v.1.15,2013-06-20 21:54:00,
2013-06-20 17:00:00,90.7,73.4,29.69,SSE,159,15.0,18.0,57,0.00,,,0.00,278,Wunderground v.1.15,2013-06-20 22:00:00,
2013-06-20 17:05:00,90.5,72.7,29.69,SSE,149,23.0,24.0,56,0.00,,,0.00,306,Wunderground v.1.15,2013-06-20 22:05:00,
2013-06-20 17:10:00,90.3,73.0,29.69,SSE,163,15.0,18.0,57,0.00,,,0.00,380,Wunderground v.1.15,2013-06-20 22:10:00,
2013-06-20 17:15:00,90.6,72.8,29.68,SSE,167,17.0,28.0,56,0.00,,,0.00,687,Wunderground v.1.15,2013-06-20 22:15:00,
2013-06-20 17:20:00,91.2,72.8,29.69,South,171,26.0,26.0,55,0.00,,,0.00,689,Wunderground v.1.15,2013-06-20 22:20:00,
2013-06-20 17:25:00,91.5,73.6,29.68,South,171,18.0,28.0,56,0.00,,,0.00,628,Wunderground v.1.15,2013-06-20 22:25:00,
2013-06-20 17:30:00,91.4,73.0,29.68,South,171,19.0,19.0,55,0.00,,,0.00,568,Wunderground v.1.15,2013-06-20 22:30:00,
2013-06-20 17:35:00,91.3,72.9,29.68,SSE,150,16.0,26.0,55,0.00,,,0.00,561,Wunderground v.1.15,2013-06-20 22:35:00,
2013-06-20 17:40:00,91.5,72.5,29.67,SSE,159,17.0,18.0,54,0.00,,,0.00,533,Wunderground v.1.15,2013-06-20 22:40:00,
2013-06-20 17:45:00,91.6,72.6,29.68,South,169,17.0,25.0,54,0.00,,,0.00,520,Wunderground v.1.15,2013-06-20 22:45:00,
2013-06-20 17:50:00,91.8,72.8,29.68,South,183,12.0,19.0,54,0.00,,,0.00,527,Wunderground v.1.15,2013-06-20 22:50:00,
2013-06-20 17:55:00,91.7,72.1,29.67,SSE,151,24.0,27.0,53,0.00,,,0.00,301,Wunderground v.1.15,2013-06-20 22:55:00,
2013-06-20 18:00:00,91.1,72.1,29.68,SSE,149,12.0,22.0,54,0.00,,,0.00,193,Wunderground v.1.15,2013-06-20 23:00:00,
2013-06-20 18:05:00,90.6,72.2,29.68,South,182,21.0,25.0,55,0.00,,,0.00,192,Wunderground v.1.15,2013-06-20 23:05:00,
2013-06-20 18:10:00,90.3,72.5,29.68,South,180,15.0,19.0,56,0.00,,,0.00,209,Wunderground v.1.15,2013-06-20 23:10:00,
2013-06-20 18:15:00,90.4,73.1,29.68,SSE,163,17.0,22.0,57,0.00,,,0.00,353,Wunderground v.1.15,2013-06-20 23:15:00,
2013-06-20 18:20:00,90.4,73.1,29.68,SSE,164,15.0,18.0,57,0.00,,,0.00,369,Wunderground v.1.15,2013-06-20 23:20:00,
2013-06-20 18:25:00,90.4,72.6,29.68,SSE,163,14.0,24.0,56,0.00,,,0.00,343,Wunderground v.1.15,2013-06-20 23:25:00,
2013-06-20 18:30:00,90.4,73.1,29.68,SSE,165,13.0,16.0,57,0.00,,,0.00,265,Wunderground v.1.15,2013-06-20 23:30:00,
2013-06-20 18:35:00,90.3,73.0,29.68,SSE,156,15.0,21.0,57,0.00,,,0.00,227,Wunderground v.1.15,2013-06-20 23:35:00,
2013-06-20 18:40:00,90.0,73.2,29.68,SSE,153,11.0,23.0,58,0.00,,,0.00,227,Wunderground v.1.15,2013-06-20 23:40:00,
2013-06-20 18:45:00,89.8,73.0,29.68,SSE,167,12.0,25.0,58,0.00,,,0.00,239,Wunderground v.1.15,2013-06-20 23:45:00,
2013-06-20 18:50:00,89.7,73.0,29.68,SSE,162,13.0,21.0,58,0.00,,,0.00,239,Wunderground v.1.15,2013-06-20 23:50:00,
2013-06-20 18:55:00,89.6,72.9,29.68,South,185,16.0,22.0,58,0.00,,,0.00,227,Wunderground v.1.15,2013-06-20 23:55:00,
2013-06-20 19:01:00,89.4,72.7,29.69,SSE,167,15.0,20.0,58,0.00,,,0.00,213,Wunderground v.1.15,2013-06-21 00:01:00,
2013-06-20 19:06:00,89.3,73.1,29.69,SSE,168,10.0,23.0,59,0.00,,,0.00,197,Wunderground v.1.15,2013-06-21 00:06:00,
2013-06-20 19:11:00,89.2,73.0,29.68,South,171,22.0,22.0,59,0.00,,,0.00,186,Wunderground v.1.15,2013-06-21 00:11:00,
2013-06-20 19:16:00,89.0,72.8,29.69,South,172,13.0,22.0,59,0.00,,,0.00,174,Wunderground v.1.15,2013-06-21 00:16:00,
2013-06-20 19:21:00,88.8,72.6,29.68,SSE,153,19.0,23.0,59,0.00,,,0.00,169,Wunderground v.1.15,2013-06-21 00:21:00,
2013-06-20 19:26:00,88.7,72.5,29.69,SSE,165,16.0,24.0,59,0.00,,,0.00,158,Wunderground v.1.15,2013-06-21 00:26:00,
2013-06-20 19:31:00,88.4,72.2,29.69,SSE,158,17.0,22.0,59,0.00,,,0.00,123,Wunderground v.1.15,2013-06-21 00:31:00,
2013-06-20 19:36:00,88.2,72.1,29.69,SSE,163,13.0,22.0,59,0.00,,,0.00,121,Wunderground v.1.15,2013-06-21 00:36:00,
2013-06-20 19:41:00,87.9,72.3,29.69,SSE,155,19.0,24.0,60,0.00,,,0.00,125,Wunderground v.1.15,2013-06-21 00:41:00,
2013-06-20 19:46:00,87.7,72.6,29.69,SSE,161,12.0,24.0,61,0.00,,,0.00,114,Wunderground v.1.15,2013-06-21 00:46:00,
2013-06-20 19:51:00,87.4,72.3,29.69,SSE,158,15.0,20.0,61,0.00,,,0.00,90,Wunderground v.1.15,2013-06-21 00:51:00,
2013-06-20 19:56:00,87.2,72.6,29.69,SSE,157,16.0,24.0,62,0.00,,,0.00,91,Wunderground v.1.15,2013-06-21 00:56:00,
2013-06-20 20:01:00,87.0,72.4,29.69,SSE,150,14.0,17.0,62,0.00,,,0.00,86,Wunderground v.1.15,2013-06-21 01:01:00,
2013-06-20 20:06:00,86.7,72.6,29.70,SE,144,18.0,22.0,63,0.00,,,0.00,81,Wunderground v.1.15,2013-06-21 01:06:00,
2013-06-20 20:11:00,86.6,72.5,29.70,SSE,153,11.0,20.0,63,0.00,,,0.00,72,Wunderground v.1.15,2013-06-21 01:11:00,
2013-06-20 20:16:00,86.4,72.8,29.70,SE,142,14.0,21.0,64,0.00,,,0.00,65,Wunderground v.1.15,2013-06-21 01:16:00,
2013-06-20 20:21:00,86.2,72.6,29.70,SSE,158,12.0,20.0,64,0.00,,,0.00,56,Wunderground v.1.15,2013-06-21 01:21:00,
2013-06-20 20:26:00,86.0,72.4,29.70,SSE,161,13.0,21.0,64,0.00,,,0.00,47,Wunderground v.1.15,2013-06-21 01:26:00,
2013-06-20 20:31:00,85.8,72.2,29.70,SSE,165,12.0,18.0,64,0.00,,,0.00,40,Wunderground v.1.15,2013-06-21 01:31:00,
2013-06-20 20:36:00,85.6,72.5,29.70,SSE,154,14.0,18.0,65,0.00,,,0.00,32,Wunderground v.1.15,2013-06-21 01:36:00,
2013-06-20 20:41:00,85.4,72.3,29.70,SSE,162,14.0,21.0,65,0.00,,,0.00,25,Wunderground v.1.15,2013-06-21 01:41:00,
2013-06-20 20:46:00,85.2,72.6,29.70,SSE,157,15.0,23.0,66,0.00,,,0.00,21,Wunderground v.1.15,2013-06-21 01:46:00,
2013-06-20 20:52:00,85.0,72.4,29.71,SSE,159,20.0,20.0,66,0.00,,,0.00,16,Wunderground v.1.15,2013-06-21 01:52:00,
2013-06-20 20:57:00,84.8,72.2,29.71,SE,142,13.0,23.0,66,0.00,,,0.00,11,Wunderground v.1.15,2013-06-21 01:57:00,
2013-06-20 21:02:00,84.7,72.5,29.71,SSE,157,16.0,17.0,67,0.00,,,0.00,7,Wunderground v.1.15,2013-06-21 02:02:00,
2013-06-20 21:07:00,84.5,72.3,29.71,SSE,157,16.0,17.0,67,0.00,,,0.00,0,Wunderground v.1.15,2013-06-21 02:07:00,
2013-06-20 21:12:00,84.2,72.0,29.71,SSE,159,11.0,18.0,67,0.00,,,0.00,0,Wunderground v.1.15,2013-06-21 02:12:00,
2013-06-20 21:17:00,83.9,72.2,29.71,SSE,163,12.0,19.0,68,0.00,,,0.00,0,Wunderground v.1.15,2013-06-21 02:17:00,
2013-06-20 21:22:00,83.7,72.4,29.71,SE,146,18.0,18.0,69,0.00,,,0.00,0,Wunderground v.1.15,2013-06-21 02:22:00,
2013-06-20 21:27:00,83.6,72.3,29.71,SSE,155,16.0,23.0,69,0.00,,,0.00,0,Wunderground v.1.15,2013-06-21 02:27:00,
2013-06-20 21:32:00,83.4,72.2,29.71,SSE,165,20.0,24.0,69,0.00,,,0.00,0,Wunderground v.1.15,2013-06-21 02:32:00,
2013-06-20 21:37:00,83.4,72.2,29.71,SSE,167,23.0,24.0,69,0.00,,,0.00,0,Wunderground v.1.15,2013-06-21 02:37:00,
2013-06-20 21:42:00,83.2,72.4,29.72,SSE,165,13.0,22.0,70,0.00,,,0.00,0,Wunderground v.1.15,2013-06-21 02:42:00,
2013-06-20 21:48:00,83.1,72.3,29.72,SSE,156,9.0,22.0,70,0.00,,,0.00,0,Wunderground v.1.15,2013-06-21 02:48:00,
2013-06-20 21:53:00,82.9,72.5,29.73,SSE,161,17.0,20.0,71,0.00,,,0.00,0,Wunderground v.1.15,2013-06-21 02:53:00,
2013-06-20 21:58:00,82.7,72.3,29.73,SE,144,20.0,23.0,71,0.00,,,0.00,0,Wunderground v.1.15,2013-06-21 02:58:00,
2013-06-20 22:03:00,82.6,72.2,29.74,SSE,162,10.0,19.0,71,0.00,,,0.00,0,Wunderground v.1.15,2013-06-21 03:03:00,
2013-06-20 22:08:00,82.5,72.6,29.73,SSE,157,15.0,22.0,72,0.00,,,0.00,0,Wunderground v.1.15,2013-06-21 03:08:00,
2013-06-20 22:13:00,82.4,72.5,29.74,SSE,165,14.0,20.0,72,0.00,,,0.00,0,Wunderground v.1.15,2013-06-21 03:13:00,
2013-06-20 22:18:00,82.3,72.4,29.74,SSE,157,11.0,22.0,72,0.00,,,0.00,0,Wunderground v.1.15,2013-06-21 03:18:00,
2013-06-20 22:23:00,82.1,72.6,29.74,SE,131,17.0,19.0,73,0.00,,,0.00,0,Wunderground v.1.15,2013-06-21 03:23:00,
2013-06-20 22:28:00,81.9,72.4,29.74,SSE,158,14.0,20.0,73,0.00,,,0.00,0,Wunderground v.1.15,2013-06-21 03:28:00,
2013-06-20 22:33:00,81.8,72.7,29.74,SSE,156,14.0,23.0,74,0.00,,,0.00,0,Wunderground v.1.15,2013-06-21 03:33:00,
2013-06-20 22:38:00,81.7,72.6,29.74,SSE,159,14.0,23.0,74,0.00,,,0.00,0,Wunderground v.1.15,2013-06-21 03:38:00,
2013-06-20 22:43:00,81.5,72.8,29.74,SSE,166,11.0,21.0,75,0.00,,,0.00,0,Wunderground v.1.15,2013-06-21 03:43:00,
2013-06-20 22:48:00,81.4,72.7,29.74,SSE,168,17.0,22.0,75,0.00,,,0.00,0,Wunderground v.1.15,2013-06-21 03:48:00,
2013-06-20 22:53:00,81.3,72.6,29.75,SSE,154,19.0,23.0,75,0.00,,,0.00,0,Wunderground v.1.15,2013-06-21 03:53:00,
2013-06-20 22:58:00,81.2,72.9,29.75,SSE,150,15.0,23.0,76,0.00,,,0.00,0,Wunderground v.1.15,2013-06-21 03:58:00,
2013-06-20 23:01:00,81.1,72.8,29.75,SE,142,14.0,15.0,76,0.00,,,0.00,0,Wunderground v.1.15,2013-06-21 04:01:00,
2013-06-20 23:06:00,81.0,72.7,29.75,SSE,159,13.0,21.0,76,0.00,,,0.00,0,Wunderground v.1.15,2013-06-21 04:06:00,
2013-06-20 23:11:00,80.9,73.0,29.75,SSE,156,19.0,22.0,77,0.00,,,0.00,0,Wunderground v.1.15,2013-06-21 04:11:00,
2013-06-20 23:16:00,80.9,73.0,29.75,South,171,16.0,22.0,77,0.00,,,0.00,0,Wunderground v.1.15,2013-06-21 04:16:00,
2013-06-20 23:21:00,80.8,72.9,29.75,SSE,161,18.0,21.0,77,0.00,,,0.00,0,Wunderground v.1.15,2013-06-21 04:21:00,
2013-06-20 23:26:00,80.7,72.8,29.75,SSE,147,15.0,21.0,77,0.00,,,0.00,0,Wunderground v.1.15,2013-06-21 04:26:00,
2013-06-20 23:31:00,80.7,72.8,29.75,SSE,166,16.0,20.0,77,0.00,,,0.00,0,Wunderground v.1.15,2013-06-21 04:31:00,
2013-06-20 23:36:00,80.5,73.0,29.75,SSE,160,13.0,20.0,78,0.00,,,0.00,0,Wunderground v.1.15,2013-06-21 04:36:00,
2013-06-20 23:41:00,80.5,73.0,29.75,South,189,17.0,20.0,78,0.00,,,0.00,0,Wunderground v.1.15,2013-06-21 04:41:00,
2013-06-20 23:46:00,80.4,72.9,29.75,SE,143,20.0,21.0,78,0.00,,,0.00,0,Wunderground v.1.15,2013-06-21 04:46:00,
2013-06-20 23:51:00,80.3,72.8,29.75,SSE,167,14.0,17.0,78,0.00,,,0.00,0,Wunderground v.1.15,2013-06-21 04:51:00,
2013-06-20 23:56:00,80.2,72.7,29.75,SSE,158,12.0,19.0,78,0.00,,,0.00,0,Wunderground v.1.15,2013-06-21 04:56:00,